Overview Statistics Trail Chart Weather Telemetry Raw packets
 

This is the latest recevied weather packets stored in our database for station/object WI0K. If no packets are shown the sender has not sent any weather packets the latest 10 day(s).

<< 44 45 46 47 48 49 50 >>
Time Temp. Humidity Pressure Rain* Wind** Luminosity Snow
1788367675 26.67° C 30% 1019.8 hPa 0 mm - 786 W/m² -
1788367374 26.67° C 29% 1019.9 hPa 0 mm - 774 W/m² -
1788367073 26.67° C 30% 1019.9 hPa 0 mm - 757 W/m² -
1788366773 26.67° C 30% 1019.9 hPa 0 mm - 744 W/m² -
1788366472 26.67° C 31% 1019.9 hPa 0 mm - 735 W/m² -
1788366171 26.67° C 30% 1019.9 hPa 0 mm - 722 W/m² -
1788365870 26.11° C 32% 1019.8 hPa 0 mm - 709 W/m² -
1788365569 25.56° C 32% 1019.9 hPa 0 mm - 696 W/m² -
1788365269 25.56° C 31% 1019.9 hPa 0 mm - 684 W/m² -
1788364967 25.56° C 32% 1019.9 hPa 0 mm - 668 W/m² -
1788364667 25.56° C 32% 1019.9 hPa 0 mm - 652 W/m² -
1788364366 25.56° C 32% 1019.9 hPa 0 mm - 637 W/m² -
1788364065 25.56° C 33% 1019.9 hPa 0 mm - 620 W/m² -
1788363765 25° C 34% 1019.9 hPa 0 mm - 604 W/m² -
1788363464 24.44° C 37% 1019.9 hPa 0 mm - 585 W/m² -
1788363163 23.89° C 39% 1019.9 hPa 0 mm - 568 W/m² -
1788362863 23.33° C 39% 1020.1 hPa 0 mm - 550 W/m² -
1788362562 23.33° C 43% 1020.1 hPa 0 mm - 530 W/m² -
1788362261 23.33° C 41% 1020.1 hPa 0 mm - 519 W/m² -
1788361960 22.78° C 44% 1020.2 hPa 0 mm - 502 W/m² -
1788361659 22.22° C 46% 1020.2 hPa 0 mm - 483 W/m² -
1788361359 22.22° C 45% 1020.1 hPa 0 mm - 462 W/m² -
1788361058 21.67° C 45% 1020.2 hPa 0 mm - 445 W/m² -
1788360757 21.67° C 47% 1020.2 hPa 0 mm - 429 W/m² -
1788360457 21.67° C 47% 1020.2 hPa 0 mm - 410 W/m² -

* Rain latest hour (hover to see other rain measurements)
** Current wind speed in m/s (hover to see current wind gust speed)